Tracking 31027 objects as of 19-Jul-2025
HD Live streaming from Space Station
objects crossing your sky now

DELTA 1 DEB

Track DELTA 1 DEB now!
10-day predictions


NORAD ID: 21933
Int'l Code: 1975-052JT
Perigee: 1,057.8 km
Apogee: 1,299.6 km
Inclination: 99.4 °
Period: 108.8 minutes
Semi major axis: 7549 km
RCS: 0.0315 m2 (small)
Launch date: June 12, 1975
Source: United States (US)
Launch site: AIR FORCE WESTERN TEST RANGE (AFWTR)

Note: This is SATELLITE DEBRIS
Your satellite tracking list
IRIDIUM 106
Track 1 satellite(s)




NASA's NSSDC Master Catalog

Two Line Element Set (TLE):
1 21933U 75052JT  25198.74696566  .00000183  00000-0  48761-3 0  9992
2 21933  99.3501 287.9489 0160169  28.4877 122.0074 13.23446532627995
Source of the keplerian elements: AFSPC